Terug naar catalogus

CZ-4B DEB

ActiefSSO
NORAD 37580·DEBRIS·🇨🇳 China

Gelanceerd May 10, 1999 vanaf Taiyuan Satellite Launch Center

Loading…

Volgende Passages (komende 24 uur)

TLE

VersSource: Space-Track

Epoch: Sep 13, 2026, 09:05 UTC

1 37580U 99025EKD 26256.37873019  .00000444  00000-0  26220-3 0  9994
2 37580  98.8014 293.8174 0124189 155.6032 217.8050 14.08844846190174

Volg CZ-4B DEB in realtime met AllMySat

Download on the App Store